This demonstration page uses our WeatherBlox Daily Observations layout. Learn more.

Left ArrowRight Arrow

Hourly Observations for November 11, 2019

Temp ( °F °C ) Dew Point ( °F °C ) Humidity (%) Winds ( mph kmh ) Pressure ( in mb ) Visibility ( mi km ) Precip ( " mm )
12:53 am 00:53 Clear 72 22.2 41 5 33 33 NNW 10 17 30.01 1016 10 16 0.00 0.00
1:53 am 01:53 Clear 72 22.2 42 5.6 34 34 N 12 19 30.01 1016 10 16 0.00 0.00
2:53 am 02:53 Clear 72 22.2 42 5.6 34 34 N 10 17 30.01 1016 10 16 0.00 0.00
3:53 am 03:53 Clear 72 22.2 42 5.6 34 34 N 9 15 30.01 1016 10 16 0.00 0.00
4:53 am 04:53 Clear 71 21.7 42 5.6 35 35 NNW 9 15 30.01 1016 10 16 0.00 0.00
5:53 am 05:53 Clear 70 21.1 43 6.1 38 38 N 9 15 30.04 1017 10 16 0.00 0.00
6:53 am 06:53 Sunny 70 21.1 42 5.6 37 37 N 8 13 30.03 1017 10 16 0.00 0.00
7:53 am 07:53 Sunny 72 22.2 42 5.6 34 34 N 8 13 30.05 1018 10 16 0.00 0.00
8:53 am 08:53 Sunny 75 23.9 42 5.6 31 31 NNW 9 15 30.07 1018 10 16 0.00 0.00
9:53 am 09:53 Sunny 77 25 42 5.6 29 29 N 14 22 30.06 1018 10 16 0.00 0.00
10:53 am 10:53 Sunny 79 26.1 41 5 26 26 N 12 19 30.06 1018 10 16 0.00 0.00
11:53 am 11:53 Sunny 82 27.8 42 5.6 24 24 N 10 17 30.03 1017 10 16 0.00 0.00
12:53 pm 12:53 Sunny 83 28.3 41 5 23 23 N 9 15 30.00 1016 10 16 0.00 0.00
1:53 pm 13:53 Sunny 85 29.4 41 5 21 21 N 10 17 29.98 1015 10 16 0.00 0.00
2:53 pm 14:53 Sunny 86 30 41 5 20 20 N 10 17 29.98 1015 10 16 0.00 0.00
3:53 pm 15:53 Sunny 85 29.4 41 5 21 21 NNE 14 22 29.97 1015 10 16 0.00 0.00
4:53 pm 16:53 Sunny 81 27.2 42 5.6 25 25 N 5 7 29.97 1015 10 16 0.00 0.00
5:53 pm 17:53 Clear 76 24.4 42 5.6 30 30 N 5 7 29.98 1015 10 16 0.00 0.00
6:53 pm 18:53 Clear 74 23.3 43 6.1 33 33 NNW 6 9 29.99 1016 10 16 0.00 0.00
7:53 pm 19:53 Clear 65 18.3 42 5.6 43 43 SSE 9 15 30.01 1016 10 16 0.00 0.00
8:53 pm 20:53 Clear 62 16.7 42 5.6 48 48 Calm 30.03 1017 10 16 0.00 0.00
9:53 pm 21:53 Clear 58 14.4 41 5 53 53 Calm 30.05 1018 10 16 0.00 0.00
10:53 pm 22:53 Clear 56 13.3 41 5 57 57 Calm 30.05 1018 10 16 0.00 0.00
11:53 pm 23:53 Clear 56 13.3 40 4.4 55 55 NNE 3 6 30.06 1018 10 16 0.00 0.00

Powered by AerisWeather